CW0500 Weather Reports


time (UTC)temp
C
wind
direction
speed
KPH
gust
KPH
rain 1hr
cm
rain 24hr
cm
rain mn
cm
humidity
%
barometer
mb
20260504185049 17 262 20.9 30.6 0.00 0.00 0.00 45 1006.2
20260504184533 17 245 19.3 30.6 0.00 0.00 0.00 45 1006.3
20260504184048 17 283 17.7 30.6 0.00 0.00 0.00 44 1006.3
20260504183518 17 228 17.7 27.4 0.00 0.00 0.00 47 1006.3
20260504183019 17 248 17.7 29.0 0.00 0.00 0.00 48 1006.5
20260504182518 17 236 22.5 29.0 0.00 0.00 0.00 45 1006.6
20260504182030 17 241 24.1 30.6 0.00 0.00 0.00 44 1006.6
20260504181550 16 269 14.5 29.0 0.00 0.00 0.00 47 1006.5
20260504181036 17 273 17.7 29.0 0.00 0.00 0.00 44 1006.6
20260504180529 16 234 16.1 29.0 0.00 0.00 0.00 43 1006.5
20260504180041 16 209 17.7 29.0 0.00 0.00 0.00 46 1006.6
20260504175550 16 271 16.1 38.6 0.00 0.00 0.00 45 1006.7
20260504175026 16 261 24.1 38.6 0.00 0.00 0.00 45 1006.8
20260504174542 16 277 14.5 25.7 0.00 0.00 0.00 44 1006.7
20260504174033 16 265 17.7 29.0 0.00 0.00 0.00 46 1006.6
20260504173540 16 242 19.3 29.0 0.00 0.00 0.00 47 1006.8
20260504173054 16 276 22.5 35.4 0.00 0.00 0.00 44 1006.8
20260504172542 16 279 17.7 35.4 0.00 0.00 0.00 43 1006.8
20260504172019 16 261 20.9 32.2 0.00 0.00 0.00 47 1006.8
20260504171549 16 273 17.7 32.2 0.00 0.00 0.00 43 1006.7
20260504171018 16 232 22.5 33.8 0.00 0.00 0.00 47 1007.0
20260504170525 16 246 25.7 33.8 0.00 0.00 0.00 46 1006.9
20260504151025 13 288 20.9 33.8 0.00 0.00 0.00 55 1008.0
20260504150523 13 251 25.7 33.8 0.00 0.00 0.00 53 1008.1
20260504141018 13 286 17.7 29.0 0.00 0.00 0.00 57 1008.3
20260504140546 13 247 17.7 32.2 0.00 0.00 0.00 55 1008.4
20260504130528 11 273 16.1 25.7 0.00 0.00 0.00 62 1008.7
20260504110545 6 228 4.8 9.7 0.00 0.00 0.00 75 1009.1
20260504100525 5 110 0.0 3.2 0.00 0.00 0.00 79 1009.0
20260504081523 7 266 9.7 11.3 0.00 0.00 0.00 69 1009.0
20260504081018 7 286 8.0 9.7 0.00 0.00 0.00 68 1008.9
20260504080527 7 262 8.0 11.3 0.00 0.00 0.00 67 1008.9
20260504050550 1 304 0.0 0.0 0.00 0.00 0.00 92 1008.9
20260504045535 1 304 0.0 0.0 0.00 0.00 0.00 92 1009.0
20260504045024 1 304 0.0 0.0 0.00 0.00 0.00 92 1009.0
20260504044518 1 304 0.0 0.0 0.00 0.00 0.00 92 1009.0
20260504044031 1 304 0.0 0.0 0.00 0.00 0.00 93 1009.1
20260504043522 0 304 0.0 0.0 0.00 0.00 0.00 93 1009.1
20260504043023 0 304 0.0 0.0 0.00 0.00 0.00 94 1009.1
20260504042552 0 304 0.0 0.0 0.00 0.00 0.00 93 1009.1
20260504042024 0 304 0.0 0.0 0.00 0.00 0.00 93 1009.0
20260504041521 0 304 0.0 0.0 0.00 0.00 0.00 93 1009.1
20260504041034 0 304 0.0 0.0 0.00 0.00 0.00 93 1009.0
20260504040543 0 304 0.0 0.0 0.00 0.00 0.00 92 1008.8
20260504040020 0 304 0.0 0.0 0.00 0.00 0.00 92 1008.8
20260504035531 0 304 0.0 0.0 0.00 0.00 0.00 92 1008.9
20260504035028 0 304 0.0 0.0 0.00 0.00 0.00 91 1008.9
20260504034522 0 304 0.0 0.0 0.00 0.00 0.00 91 1008.7
20260504034027 0 304 0.0 0.0 0.00 0.00 0.00 91 1008.7
20260504033536 0 304 0.0 0.0 0.00 0.00 0.00 90 1008.7
20260504033030 0 304 0.0 0.0 0.00 0.00 0.00 90 1008.7
20260504032519 0 304 0.0 0.0 0.00 0.00 0.00 89 1008.6
20260504032018 0 304 0.0 0.0 0.00 0.00 0.00 89 1008.7
20260504031536 0 304 0.0 0.0 0.00 0.00 0.00 88 1008.6
20260504031051 0 304 0.0 0.0 0.00 0.00 0.00 88 1008.6
20260504030543 0 304 0.0 0.0 0.00 0.00 0.00 88 1008.5
20260504030021 0 304 0.0 0.0 0.00 0.00 0.00 88 1008.6
20260504025545 0 304 0.0 1.6 0.00 0.00 0.00 87 1008.6
20260504025033 0 304 0.0 1.6 0.00 0.00 0.00 86 1008.6
20260504024520 0 296 0.0 0.0 0.00 0.00 0.00 86 1008.6
20260504024036 1 296 0.0 0.0 0.00 0.00 0.00 86 1008.6
20260504023528 1 296 0.0 0.0 0.00 0.00 0.00 85 1008.6
20260504023043 1 296 0.0 0.0 0.00 0.00 0.00 85 1008.5
20260504022539 1 296 0.0 0.0 0.00 0.00 0.00 85 1008.5
20260504022051 1 296 0.0 0.0 0.00 0.00 0.00 84 1008.5
20260504021529 1 296 0.0 0.0 0.00 0.00 0.00 83 1008.5
20260504021030 1 296 0.0 0.0 0.00 0.00 0.00 83 1008.4
20260504020546 1 296 0.0 0.0 0.00 0.00 0.00 83 1008.4
20260504020041 1 296 0.0 0.0 0.00 0.00 0.00 82 1008.4
20260504015531 2 296 0.0 0.0 0.00 0.00 0.00 82 1008.3
20260504015039 2 296 0.0 0.0 0.00 0.00 0.00 81 1008.3
20260504014520 2 296 0.0 0.0 0.00 0.00 0.00 81 1008.3
20260504014108 2 296 0.0 0.0 0.00 0.00 0.00 80 1008.2
20260504013526 2 296 0.0 0.0 0.00 0.00 0.00 80 1008.3
20260504013022 2 296 0.0 0.0 0.00 0.00 0.00 80 1008.2
20260504012555 3 296 0.0 0.0 0.00 0.00 0.00 80 1008.2
20260504012030 3 296 0.0 0.0 0.00 0.00 0.00 78 1008.1
20260504011544 3 296 0.0 0.0 0.00 0.00 0.00 77 1008.1
20260504011042 3 296 0.0 0.0 0.00 0.00 0.00 77 1008.0
20260504010546 3 296 0.0 0.0 0.00 0.00 0.00 77 1008.0
20260504010027 4 296 0.0 1.6 0.00 0.00 0.00 76 1007.9
20260504005532 4 296 0.0 1.6 0.00 0.00 0.00 73 1007.8
20260504005025 4 296 0.0 0.0 0.00 0.00 0.00 71 1007.7
20260504004605 5 296 0.0 0.0 0.00 0.00 0.00 70 1007.7
20260504004033 5 296 0.0 0.0 0.00 0.00 0.00 70 1007.6
20260504003542 5 296 0.0 1.6 0.00 0.00 0.00 67 1007.6
20260504003020 6 296 0.0 1.6 0.00 0.00 0.00 65 1007.5
20260504002604 6 296 0.0 0.0 0.00 0.00 0.00 56 1007.4
20260504002021 7 296 0.0 0.0 0.00 0.00 0.00 54 1007.4
20260504001600 7 296 0.0 0.0 0.00 0.00 0.00 54 1007.4
20260504001030 7 296 0.0 1.6 0.00 0.00 0.00 53 1007.3
20260504000520 7 296 0.0 3.2 0.00 0.00 0.00 53 1007.2
20260504000035 8 296 0.0 3.2 0.00 0.00 0.00 51 1007.2
20260503235546 8 296 0.0 4.8 0.00 0.00 0.00 51 1007.2
20260503235038 8 295 1.6 4.8 0.00 0.00 0.00 55 1007.2
20260503234535 8 293 3.2 9.7 0.00 0.00 0.00 52 1007.3
20260503234024 8 316 6.4 11.3 0.00 0.00 0.00 52 1007.2
20260503233519 8 294 8.0 11.3 0.00 0.00 0.00 49 1007.1
20260503233032 8 313 1.6 9.7 0.00 0.00 0.00 51 1007.1
20260503232544 8 299 1.6 9.7 0.00 0.00 0.00 49 1007.0
20260503232025 9 296 3.2 17.7 0.00 0.00 0.00 50 1007.0
20260503231522 9 309 9.7 17.7 0.00 0.00 0.00 50 1006.8
20260503231034 9 318 8.0 16.1 0.00 0.00 0.00 54 1006.8
20260503230532 9 295 11.3 22.5 0.00 0.00 0.00 53 1006.8
20260503230048 9 286 11.3 20.9 0.00 0.00 0.00 50 1006.7
20260503225528 9 277 9.7 19.3 0.00 0.00 0.00 48 1006.8
20260503225037 10 284 9.7 30.6 0.00 0.00 0.00 51 1006.6
20260503224557 10 324 8.0 22.5 0.00 0.00 0.00 50 1006.7
20260503224048 10 295 16.1 25.7 0.00 0.00 0.00 51 1006.6
20260503223523 9 299 16.1 25.7 0.00 0.00 0.00 49 1006.5
20260503223019 9 258 9.7 27.4 0.00 0.00 0.00 51 1006.6
20260503222531 9 306 19.3 27.4 0.00 0.00 0.00 51 1006.5
20260503222021 9 298 6.4 16.1 0.00 0.00 0.00 51 1006.5
20260503221532 9 286 6.4 19.3 0.00 0.00 0.00 48 1006.4
20260503221028 9 273 8.0 19.3 0.00 0.00 0.00 49 1006.3
20260503220541 9 302 6.4 19.3 0.00 0.00 0.00 48 1006.4
20260503220020 9 304 8.0 19.3 0.00 0.00 0.00 50 1006.4
20260503215532 9 299 3.2 19.3 0.00 0.00 0.00 49 1006.4
20260503215031 8 243 6.4 19.3 0.00 0.00 0.00 48 1006.4
20260503214527 8 276 8.0 16.1 0.00 0.00 0.00 52 1006.5
20260503214035 8 153 3.2 17.7 0.00 0.00 0.00 48 1006.4
20260503213524 8 329 6.4 17.7 0.00 0.00 0.00 50 1006.4
20260503213034 8 349 3.2 22.5 0.00 0.00 0.00 49 1006.3
20260503212539 9 330 9.7 22.5 0.00 0.00 0.00 47 1006.3
20260503212052 8 324 4.8 20.9 0.00 0.00 0.00 51 1006.3
20260503211545 8 286 8.0 19.3 0.00 0.00 0.00 53 1006.1
20260503211100 8 277 11.3 19.3 0.00 0.00 0.00 49 1006.2
20260503210533 8 317 6.4 19.3 0.00 0.00 0.00 48 1006.1
20260503210021 8 278 8.0 16.1 0.00 0.00 0.00 51 1006.0
20260503205549 8 271 6.4 16.1 0.00 0.00 0.00 49 1006.1
20260503205053 8 296 6.4 17.7 0.00 0.00 0.00 51 1006.0
20260503204537 8 270 8.0 20.9 0.00 0.00 0.00 48 1005.9
20260503204026 8 276 11.3 20.9 0.00 0.00 0.00 52 1006.0
20260503203539 8 304 8.0 17.7 0.00 0.00 0.00 52 1005.9
20260503203034 8 283 9.7 19.3 0.00 0.00 0.00 55 1005.9
20260503202546 8 291 6.4 19.3 0.00 0.00 0.00 52 1005.8
20260503202042 8 268 9.7 19.3 0.00 0.00 0.00 52 1005.8
20260503201526 8 291 6.4 24.1 0.00 0.00 0.00 55 1005.8
20260503201036 8 257 11.3 30.6 0.00 0.00 0.00 50 1005.7
20260503200533 8 289 11.3 24.1 0.00 0.00 0.00 49 1005.7
20260503200032 8 270 16.1 22.5 0.00 0.00 0.00 48 1005.7
20260503195541 8 313 11.3 24.1 0.00 0.00 0.00 49 1005.7
20260503195031 8 295 12.9 24.1 0.00 0.00 0.00 47 1005.7
20260503194528 9 297 9.7 19.3 0.00 0.00 0.00 50 1005.7
20260503194037 8 274 9.7 29.0 0.00 0.00 0.00 51 1005.7
20260503193530 8 265 11.3 29.0 0.00 0.00 0.00 48 1005.8
20260503193019 8 265 16.1 30.6 0.00 0.00 0.00 49 1005.7
20260503192527 8 248 11.3 25.7 0.00 0.00 0.00 52 1005.7
20260503192036 8 294 11.3 30.6 0.00 0.00 0.00 50 1005.6
20260503191519 9 267 8.0 30.6 0.00 0.00 0.00 49 1005.6
20260503191032 9 309 8.0 20.9 0.00 0.00 0.00 49 1005.5
20260503190528 9 5 4.8 22.5 0.00 0.00 0.00 48 1005.5
20260503190040 9 286 6.4 20.9 0.00 0.00 0.00 52 1005.5
20260503185528 8 267 14.5 32.2 0.00 0.00 0.00 52 1005.5